Flag Weather past 2 weeks in Celje, Slovenia

Now
38 °F

Chilly.


Feels Like: 38 °F
Forecast: 32 / 41 °F
Wind: 1 mph from East

Location: Celje

Current Time: Nov 27, 2014 at 10:43:02 AM

Latest Report: Nov 27, 2014 at 10:00 AM


Visibility: N/A

Pressure: 30.12 "Hg

Humidity: 86%

Dew point: 34 °F

Location of CeljeLocation

Historic Weather in Celje — Graph

°F

Celje temperature yesterday

Maximum temperature yesterday: 41 °F (at 2:00 PM)
Minimum temperature yesterday: 38 °F (at 10:00 PM)
Average temperature yesterday: 39 °F

Past Weeks' High & Low Weather Summary

 TemperatureHumidityPressure
High62 °F (Nov 16, 3:00 PM)100% (Nov 15, 7:00 AM)30.44 "Hg (Nov 15, 7:00 AM)
Low32 °F (Nov 23, 1:00 AM)54% (Nov 16, 4:00 PM)29.67 "Hg (Nov 18, 4:00 AM)
Average45 °F91%30.08 "Hg
* Reported Nov 12 9:00 AM — Nov 27 9:00 AM, Celje, Weather by CustomWeather, © 2014

Note: Actual official high and low records may vary slightly from our data, if they occured in-between our weather recording intervals... More about our weather records

Advertising

Celje weather history for previous 24 hours

 ConditionsComfort  
Time TempWeatherWind HumidityBarometerVisibility
9:00 AM
Nov 27
37 °FChilly.1 mph87%30.12 "HgN/A
8:00 AM37 °FChilly.1 mph88%30.12 "HgN/A
7:00 AM37 °FFog.1 mph88%30.11 "Hg4 mi
6:00 AM37 °FFog.1 mph89%30.11 "Hg4 mi
5:00 AM37 °FOvercast.1 mph88%30.13 "Hg5 mi
3:00 AM37 °FChilly.1 mph86%30.15 "HgN/A
2:00 AM38 °FChilly.2 mph85%30.16 "HgN/A
1:00 AM38 °FChilly.2 mph84%30.16 "HgN/A
12:00 AM38 °FChilly.1 mph86%30.18 "HgN/A
11:00 PM
Nov 26
38 °FChilly.2 mph86%30.19 "HgN/A
10:00 PM38 °FChilly.No wind89%30.19 "HgN/A
9:00 PM38 °FChilly.No wind88%30.19 "HgN/A
8:00 PM39 °FChilly.1 mph86%30.20 "HgN/A
7:00 PM39 °FOvercast.1 mph87%30.20 "Hg6 mi
6:00 PM39 °FChilly.No wind82%30.20 "HgN/A
5:00 PM40 °FQuite cool.1 mph76%30.19 "HgN/A
4:00 PM41 °FQuite cool.2 mph75%30.20 "HgN/A
3:00 PM41 °FQuite cool.2 mph74%30.20 "HgN/A
2:00 PM41 °FQuite cool.2 mph76%30.21 "HgN/A
1:00 PM41 °FOvercast.2 mph77%30.22 "Hg6 mi
12:00 PM40 °FQuite cool.2 mph76%30.24 "HgN/A
11:00 AM40 °FChilly.2 mph81%30.26 "HgN/A
10:00 AM39 °FChilly.2 mph86%30.27 "HgN/A
Weather by CustomWeather, © 2014

See weather overviewHow to use our weather pages